TimeCDT,TemperatureF,Dew PointF,Humidity,Sea Level PressureIn,VisibilityMPH,Wind Direction,Wind SpeedMPH,Gust SpeedMPH,PrecipitationIn,Events,Conditions,WindDirDegrees,DateUTC
12:15 AM,91.6,58.1,32,29.89,10.0,South,19.6,23.0,N/A,,Clear,180,2013-08-03 05:15:00
12:35 AM,90.9,58.3,33,29.89,10.0,South,16.1,-,N/A,,Clear,170,2013-08-03 05:35:00
12:55 AM,90.5,58.5,34,29.90,10.0,South,16.1,24.2,N/A,,Clear,180,2013-08-03 05:55:00
1:15 AM,89.8,58.6,35,29.91,10.0,South,15.0,-,N/A,,Clear,170,2013-08-03 06:15:00
1:35 AM,89.1,59.0,36,29.91,10.0,South,13.8,-,N/A,,Clear,170,2013-08-03 06:35:00
1:55 AM,88.7,59.0,37,29.91,10.0,South,17.3,-,N/A,,Clear,170,2013-08-03 06:55:00
2:15 AM,87.8,59.0,38,29.91,10.0,South,15.0,18.4,N/A,,Clear,180,2013-08-03 07:15:00
2:35 AM,87.3,59.0,38,29.92,10.0,South,12.7,-,N/A,,Clear,180,2013-08-03 07:35:00
2:55 AM,86.7,59.0,39,29.92,10.0,South,13.8,-,N/A,,Clear,170,2013-08-03 07:55:00
3:15 AM,86.2,59.0,40,29.92,10.0,South,12.7,-,N/A,,Clear,180,2013-08-03 08:15:00
3:35 AM,86.0,59.0,40,29.92,10.0,South,11.5,-,N/A,,Clear,170,2013-08-03 08:35:00
3:55 AM,85.3,59.0,41,29.92,10.0,South,9.2,-,N/A,,Clear,170,2013-08-03 08:55:00
4:15 AM,84.4,59.0,42,29.92,10.0,South,9.2,-,N/A,,Clear,170,2013-08-03 09:15:00
4:35 AM,82.0,59.7,47,29.92,10.0,SE,6.9,-,N/A,,Clear,140,2013-08-03 09:35:00
4:55 AM,79.7,60.3,51,29.92,10.0,SSE,5.8,-,N/A,,Clear,150,2013-08-03 09:55:00
5:15 AM,78.8,60.8,54,29.92,10.0,SE,5.8,-,N/A,,Clear,130,2013-08-03 10:15:00
5:35 AM,78.8,60.8,54,29.92,10.0,SE,5.8,-,N/A,,Clear,130,2013-08-03 10:35:00
5:55 AM,78.8,60.8,54,29.93,10.0,ESE,5.8,-,N/A,,Clear,120,2013-08-03 10:55:00
6:15 AM,78.1,61.0,56,29.93,10.0,SE,5.8,-,N/A,,Clear,140,2013-08-03 11:15:00
6:35 AM,77.0,61.0,58,29.94,10.0,SE,6.9,-,N/A,,Clear,130,2013-08-03 11:35:00
6:55 AM,76.1,61.3,60,29.95,10.0,ESE,6.9,-,N/A,,Clear,120,2013-08-03 11:55:00
7:15 AM,75.4,61.7,62,29.95,10.0,ESE,5.8,-,N/A,,Clear,110,2013-08-03 12:15:00
7:35 AM,76.5,61.9,61,29.95,10.0,SE,4.6,-,N/A,,Clear,130,2013-08-03 12:35:00
7:55 AM,78.3,62.6,58,29.96,10.0,SE,4.6,-,N/A,,Clear,140,2013-08-03 12:55:00
8:15 AM,81.1,61.2,51,29.97,10.0,SSE,8.1,-,N/A,,Clear,150,2013-08-03 13:15:00
8:35 AM,82.9,60.4,46,29.97,10.0,South,9.2,-,N/A,,Clear,170,2013-08-03 13:35:00
8:55 AM,-9999,-9999,N/A,29.97,10.0,South,13.8,-,N/A,,Clear,190,2013-08-03 13:55:00
9:15 AM,-9999,-9999,N/A,29.97,10.0,South,16.1,-,N/A,,Clear,190,2013-08-03 14:15:00
9:35 AM,-9999,-9999,N/A,29.97,10.0,SSW,15.0,-,N/A,,Clear,200,2013-08-03 14:35:00
9:55 AM,-9999,-9999,N/A,29.97,10.0,SSW,13.8,20.7,N/A,,Clear,210,2013-08-03 14:55:00
10:15 AM,-9999,-9999,N/A,29.97,10.0,SSW,13.8,-,N/A,,Clear,200,2013-08-03 15:15:00
10:35 AM,-9999,-9999,N/A,29.97,10.0,SW,15.0,19.6,N/A,,Clear,220,2013-08-03 15:35:00
10:55 AM,-9999,-9999,N/A,29.98,10.0,SW,16.1,19.6,N/A,,Clear,220,2013-08-03 15:55:00
11:15 AM,-9999,-9999,N/A,29.98,10.0,SSW,15.0,19.6,N/A,,Clear,210,2013-08-03 16:15:00
11:35 AM,-9999,-9999,N/A,29.98,10.0,SW,16.1,-,N/A,,Clear,220,2013-08-03 16:35:00
11:55 AM,-9999,-9999,N/A,29.98,10.0,SSW,16.1,20.7,N/A,,Clear,210,2013-08-03 16:55:00
12:15 PM,-9999,-9999,N/A,29.98,10.0,SW,10.4,-,N/A,,Clear,230,2013-08-03 17:15:00
12:35 PM,-9999,-9999,N/A,29.98,10.0,SSW,8.1,11.5,N/A,,Clear,210,2013-08-03 17:35:00
12:55 PM,-9999,-9999,N/A,29.97,10.0,SSW,12.7,17.3,N/A,,Clear,200,2013-08-03 17:55:00
1:15 PM,-9999,-9999,N/A,29.97,10.0,South,12.7,18.4,N/A,,Clear,180,2013-08-03 18:15:00
1:35 PM,-9999,-9999,N/A,29.96,10.0,SSW,9.2,17.3,N/A,,Clear,200,2013-08-03 18:35:00
1:55 PM,-9999,-9999,N/A,29.96,10.0,SSW,9.2,-,N/A,,Clear,210,2013-08-03 18:55:00
2:35 PM,-9999,-9999,N/A,29.95,10.0,South,13.8,20.7,N/A,,Unknown,180,2013-08-03 19:35:00
2:55 PM,-9999,-9999,N/A,29.94,10.0,South,17.3,20.7,N/A,,Clear,170,2013-08-03 19:55:00
3:15 PM,-9999,-9999,N/A,29.94,10.0,SSE,15.0,20.7,N/A,,Clear,160,2013-08-03 20:15:00
3:35 PM,-9999,-9999,N/A,29.94,10.0,South,15.0,20.7,N/A,,Clear,180,2013-08-03 20:35:00
3:55 PM,-9999,-9999,N/A,29.93,10.0,South,19.6,23.0,N/A,,Clear,170,2013-08-03 20:55:00
4:15 PM,-9999,-9999,N/A,29.93,10.0,SSW,12.7,20.7,N/A,,Clear,200,2013-08-03 21:15:00
4:35 PM,-9999,-9999,N/A,29.93,10.0,South,16.1,19.6,N/A,,Clear,170,2013-08-03 21:35:00
4:55 PM,-9999,-9999,N/A,29.92,10.0,South,11.5,19.6,N/A,,Clear,170,2013-08-03 21:55:00
5:15 PM,-9999,-9999,N/A,29.92,10.0,SSE,13.8,23.0,N/A,,Clear,160,2013-08-03 22:15:00
5:35 PM,-9999,-9999,N/A,29.92,10.0,South,12.7,20.7,N/A,,Clear,170,2013-08-03 22:35:00
5:55 PM,-9999,-9999,N/A,29.92,10.0,SSE,17.3,21.9,N/A,,Clear,160,2013-08-03 22:55:00
6:15 PM,-9999,-9999,N/A,29.92,10.0,SSE,16.1,19.6,N/A,,Clear,160,2013-08-03 23:15:00
6:35 PM,-9999,-9999,N/A,29.92,10.0,South,17.3,24.2,N/A,,Clear,190,2013-08-03 23:35:00
6:55 PM,-9999,-9999,N/A,29.92,10.0,South,18.4,-,N/A,,Clear,170,2013-08-03 23:55:00
7:15 PM,-9999,-9999,N/A,29.92,10.0,SSE,18.4,-,N/A,,Clear,160,2013-08-04 00:15:00
7:35 PM,-9999,-9999,N/A,29.93,10.0,South,18.4,-,N/A,,Clear,180,2013-08-04 00:35:00
7:55 PM,-9999,-9999,N/A,29.94,10.0,South,16.1,20.7,N/A,,Clear,170,2013-08-04 00:55:00
8:15 PM,-9999,-9999,N/A,29.94,10.0,South,16.1,21.9,N/A,,Clear,180,2013-08-04 01:15:00
8:35 PM,-9999,-9999,N/A,29.95,10.0,South,11.5,-,N/A,,Clear,170,2013-08-04 01:35:00
8:55 PM,-9999,-9999,N/A,29.97,10.0,SSE,13.8,-,N/A,,Clear,150,2013-08-04 01:55:00
9:15 PM,-9999,-9999,N/A,29.98,10.0,SE,16.1,-,N/A,,Clear,130,2013-08-04 02:15:00
9:35 PM,-9999,-9999,N/A,29.98,10.0,SE,17.3,-,N/A,,Clear,140,2013-08-04 02:35:00
9:55 PM,-9999,-9999,N/A,29.99,10.0,SE,16.1,-,N/A,,Clear,130,2013-08-04 02:55:00
10:15 PM,-9999,-9999,N/A,30.00,10.0,SE,13.8,17.3,N/A,,Clear,130,2013-08-04 03:15:00
10:35 PM,-9999,-9999,N/A,30.01,10.0,SE,15.0,20.7,N/A,,Clear,130,2013-08-04 03:35:00
10:55 PM,-9999,-9999,N/A,30.01,10.0,SE,17.3,21.9,N/A,,Clear,140,2013-08-04 03:55:00
11:15 PM,-9999,-9999,N/A,30.02,10.0,SE,15.0,-,N/A,,Clear,140,2013-08-04 04:15:00
11:35 PM,-9999,-9999,N/A,30.01,10.0,SE,15.0,20.7,N/A,,Clear,140,2013-08-04 04:35:00
11:55 PM,-9999,-9999,N/A,30.00,10.0,SE,17.3,-,N/A,,Clear,140,2013-08-04 04:55:00